Location: Palidano
(44.9667°N, 10.7833°E)
Time: 03:54:54
(UTC+00:00)

Daily predictions for brighter satellites

Satellite Brightness Start Highest point End
(mag) Time Altitude Azimuth Time Altitude Azimuth Time Altitude Azimuth
Cosmos 2278 Rocket 4.3 03:01:06 20° NE 03:01:21 20° NE 03:05:31 10° E
Cosmos 2219 Rocket 3.7 03:18:13 32° ENE 03:18:13 32° ENE 03:21:28 10° NE
Cosmos 2333 Rocket 3.7 03:20:48 32° NE 03:20:48 32° NE 03:23:56 10° NE
Lacrosse 5 rocket 4.4 03:30:45 12° ENE 03:30:45 12° ENE 03:31:11 10° ENE
COSMOS 2428 3.3 03:39:22 53° ENE 03:39:22 53° ENE 03:44:11 10° NNE
COSMO-SKYMED 1 4.5 03:37:13 10° SE 03:40:40 28° ENE 03:40:40 28° ENE
Cosmos 2360 Rocket 4.1 03:49:57 19° N 03:49:57 19° N 03:51:38 10° NNE
Cosmos 2322 Rocket 4.5 03:51:41 13° N 03:51:41 13° N 03:52:19 10° N
ADEOS 4.3 03:42:33 10° NNE 03:47:39 50° E 03:49:05 39° SE
ERS-2 4.1 03:59:27 10° SE 04:02:13 28° E 04:02:13 28° E
Cosmos 1763 Rocket 3.7 04:02:41 63° SE 04:03:05 66° ESE 04:08:17 10° NNE
Okean 1-7 Rocket 4.5 04:08:43 32° NNE 04:10:24 49° ENE 04:14:46 10° SSE
FALCON 9 R/B 4.1 04:12:46 14° SSW 04:12:46 14° SSW 04:14:16 10° S
Cosmos 1898 Rocket 3.4 04:12:47 78° NNE 04:13:03 82° ENE 04:18:13 10° SSE
Cosmos 1953 3.8 04:13:28 10° SSE 04:17:08 37° E 04:20:48 10° NNE
CZ-2C R/B 3.7 04:17:26 14° S 04:17:46 14° SSE 04:19:53 10° SE
Cosmos 1455 Rocket 3.1 04:22:39 76° ESE 04:22:42 77° E 04:27:04 10° NNE
SKYMED 2 3.5 04:24:25 10° SSE 04:28:45 86° ENE 04:29:15 70° N
Cosmos 2034 Rocket 4.5 04:22:54 10° S 04:29:08 62° E 04:35:25 10° NNE
Nadezhda 4 Rocket 4.2 04:28:21 10° N 04:34:28 68° E 04:40:33 10° SSE
deb Chang Zheng 4 3.5 04:32:38 10° NNE 04:36:55 78° ESE 04:41:08 10° S
Cosmos 468 Rocket 4.0 04:37:50 54° W 04:38:31 59° WNW 04:43:46 10° NNE
Cosmos 1340 4.0 04:37:38 11° N 04:40:58 38° ENE 04:44:30 10° SE
METEOR-M 4.2 04:35:50 10° N 04:40:59 49° WNW 04:41:14 48° WNW
Cosmos 1461 3.1 04:42:03 58° W 04:42:43 67° NW 04:47:29 10° NNE
SJ-12 3.8 04:38:59 10° N 04:43:07 68° WNW 04:43:12 68° W
PSLV R/B 4.2 04:39:54 10° SSE 04:43:58 68° ENE 04:47:25 15° N
SL-16 R/B 4.3 04:40:07 10° SSE 04:44:47 27° ESE 04:49:28 10° NE
SAR-Lupe-4 3.8 04:41:22 10° SSE 04:44:55 67° ENE 04:46:25 32° N
Cosmos 372 Rocket 4.5 04:40:32 13° NNW 04:45:14 60° ENE 04:50:24 10° SSE
Cosmos 2278 Rocket 2.1 04:43:00 28° NNW 04:46:07 79° WSW 04:51:47 10° SSE
Cosmos 1937 Rocket 3.4 04:43:44 32° NNW 04:46:13 72° WSW 04:51:25 10° S
USA 215 4.3 04:42:36 10° ENE 04:48:08 31° N 04:50:54 23° NW
Cosmos 1943 Rocket 4.2 04:44:10 10° N 04:48:40 24° NE 04:53:10 10° ESE
Cosmos 1814 Rocket 4.4 04:44:11 10° S 04:49:13 61° ESE 04:54:17 10° NNE
ALOS 4.5 04:46:20 10° N 04:46:41 12° NNW 04:46:41 12° NNW
FALCON 9 DEB 3.0 04:50:12 79° S 04:50:19 80° SE 04:53:43 10° ENE
Atlas Centaur 2 4.5 04:45:10 13° SW 04:50:47 27° S 04:57:36 10° ESE
Cosmos 44 Rocket 3.3 04:49:27 37° NW 04:51:31 73° WSW 04:56:41 10° SSE
Meteor 1-21 Rocket 4.2 04:45:49 10° N 04:51:34 88° W 04:57:23 10° S
Envisat 3.7 04:47:40 10° NNE 04:52:40 54° E 04:57:37 10° S
Cosmos 1703 3.8 04:49:02 10° N 04:52:54 58° E 04:56:44 10° SSE
CZ-2C R/B 4.1 04:48:51 10° SE 04:53:34 36° ENE 04:58:25 10° N
Cosmos 1602 Rocket 4.2 04:50:50 10° N 04:55:14 56° E 04:59:38 10° SSE
SAR-Lupe-1 3.9 04:51:57 10° SSE 04:55:32 88° ENE 04:57:16 29° NNW
Cosmos 2237 Rocket 2.1 04:50:40 10° SSW 04:56:20 90° WNW 05:02:04 10° NNE
Cosmos 2219 Rocket 2.9 04:59:59 31° WNW 05:00:16 31° NW 05:05:13 10° N
H-2A R/B 2.5 04:58:41 10° N 05:02:24 83° WNW 05:06:07 10° SSW
Cosmos 2333 Rocket 3.1 05:02:50 28° NW 05:03:01 28° NW 05:07:51 10° N
GEOS 3 Rocket 3.7 04:58:29 10° SSE 05:03:49 69° SW 05:07:17 23° NW
CZ-4B R/B 2.6 05:00:33 10° N 05:04:06 57° WNW 05:07:43 10° SSW
Cosmos 921 Rocket 3.8 05:06:41 30° NW 05:06:41 30° NW 05:09:42 10° N
SL-8 R/B 3.9 05:04:16 35° W 05:06:02 55° SSW 05:10:45 10° SE
Lacrosse 5 rocket 1.1 05:06:23 36° NW 05:07:50 84° NE 05:11:34 10° SE
MOS 1 Rocket 3.4 05:03:13 10° S 05:08:09 56° W 05:12:49 10° NNW
Cosmos 1689 Rocket 1.9 05:06:39 10° S 05:09:32 62° WSW 05:09:48 58° WNW
NOSS 3-2 (A) 4.4 05:05:30 10° S 05:10:48 47° ESE 05:16:48 10° NE
NOSS 0 Rocket 3.9 05:04:55 10° SW 05:11:01 59° WNW 05:17:08 10° NNE
YAOGAN 6 2.6 05:10:55 10° NNE 05:14:39 89° SE 05:18:20 10° SSW
Cosmos 540 Rocket 3.5 05:09:42 10° SW 05:14:43 56° WNW 05:19:47 10° NNE
COSMO-SKYMED 1 3.4 05:13:11 10° SSW 05:17:00 29° W 05:17:53 27° WNW
Cosmos 2297 4.4 05:13:15 10° NNW 05:18:54 54° ENE 05:24:31 10° SE
Lacrosse 4 Rocket 2.0 05:15:25 10° SSW 05:19:32 59° ESE 05:23:49 10° NE
COSMOS 2428 3.7 05:21:27 22° WNW 05:23:15 26° NW 05:28:00 10° N
Cosmos 1328 3.6 05:19:25 10° N 05:23:22 85° W 05:27:16 10° S
Cosmos 1400 Rocket 2.8 05:20:11 10° SSW 05:24:14 69° WNW 05:28:22 10° N
SL-4 R/B 2.7 05:25:49 10° SW 05:29:29 51° SE 05:33:28 10° ENE
Cosmos 1980 3.9 05:24:05 10° SW 05:29:33 49° WNW 05:35:03 10° NNE
Cosmos 1300 3.5 05:26:49 10° S 05:30:31 55° E 05:34:17 10° NNE
PSLV R/B 3.7 05:26:59 10° N 05:30:56 72° WNW 05:34:57 10° SSW
Cosmos 1544 Rocket 4.3 05:30:09 10° SW 05:33:55 29° WNW 05:37:44 10° NNW
BREEZE M DEB (TANK) 2.8 05:33:37 10° SW 05:35:44 43° SE 05:39:35 10° ENE
ERS-2 3.4 05:33:24 10° SW 05:36:10 20° W 05:36:47 19° W
Cosmos 2084 Rocket 4.0 05:33:12 11° NNW 05:37:20 58° NE 05:41:47 10° SE
Cosmos 2195 Rocket 4.4 05:31:12 10° NNW 05:37:28 73° W 05:43:38 10° S
Cosmos 2150 Rocket 4.0 05:39:54 10° NNW 05:45:16 82° WSW 05:50:40 10° SSE
CENTAUR R/B 3.3 05:40:42 10° SSW 05:46:19 54° ESE 05:52:57 10° NE
Cosmos 1606 Rocket 3.9 05:42:40 10° S 05:46:57 69° E 05:51:15 10° NNE
CZ-4B DEB 4.2 05:41:24 10° N 05:46:58 73° WNW 05:52:29 10° SSW
SL-19 R/B 4.1 05:43:20 10° NNE 05:47:24 73° WNW 05:50:52 10° SSW
Cosmos 1908 4.1 05:47:38 10° SW 05:50:52 26° WNW 05:54:08 10° NNW
Cosmos 1428 Rocket 4.5 05:44:49 10° NNW 05:51:05 70° W 05:57:15 10° S
MOS 1-B 4.3 05:45:24 10° NNE 05:51:12 80° WNW 05:56:57 10° SSW
Cosmos 841 Rocket 4.2 05:47:32 10° WSW 05:52:03 30° WNW 05:56:37 10° N
Cosmos 2228 3.0 05:48:00 10° S 05:52:15 88° E 05:56:31 10° N
Cosmos 1953 3.7 05:50:54 10° WSW 05:53:40 18° WNW 05:56:26 10° NNW
Cosmos 2292 Rocket 3.9 05:52:23 10° N 05:55:14 43° E 05:58:15 10° SSE
DMSP B5D2-2 4.2 05:50:30 10° SSE 05:55:45 87° ENE 06:01:04 10° NNW
CZ-2C R/B 3.4 05:53:44 10° SW 05:56:41 19° S 05:59:31 10° SE
ATLAS CENTAUR R/B 1.0 05:53:49 10° SW 05:57:30 68° NW 06:01:09 10° NNE
H-2A R/B 2.6 05:56:09 10° N 06:00:37 65° WNW 06:05:04 10° SSW
BREEZE-M DEB (TANK) 3.8 05:55:17 10° WNW 06:02:03 31° SW 06:04:53 10° SSE
Cosmos 1892 4.0 05:58:32 10° N 06:02:14 44° ENE 06:05:55 10° SSE
USA 238 DEB 3.7 05:56:30 10° SW 06:03:04 88° SE 06:09:59 10° NE
USA 238 3.7 05:56:38 10° SW 06:03:11 87° SE 06:10:06 10° NE
Cosmos 1092 Rocket 4.3 05:57:59 10° NNW 06:03:42 42° W 06:09:25 10° SSW
Cosmos 972 Rocket 4.5 05:59:11 10° SSW 06:05:35 59° WNW 06:11:20 10° NNE
Cosmos 2098 Rocket 3.7 06:00:46 10° NNW 06:06:53 60° W 06:11:46 10° S
Cosmos 2298 Rocket 4.4 06:04:36 10° NNW 06:09:42 47° WSW 06:14:47 10° S
Cosmos 1315 Rocket 2.8 06:09:54 10° SSW 06:13:45 56° WNW 06:17:36 10° N
USA 307 2.9 06:09:43 10° SW 06:13:57 89° NW 06:18:12 10° NE
Cosmos 2279 Rocket 4.0 06:07:43 10° SSW 06:13:57 76° W 06:20:15 10° N
Cosmos 1758 Rocket 4.2 06:10:52 10° NNW 06:15:01 37° W 06:19:08 10° SSW
